Location: York
(31.8935°S, 116.7682°E)
Time: 18:21:43
(UTC+08:00)

Hubble Space Telescope - Pass Details

Date: 22 May 2021
Orbit: 535 x 539 km, 28.5° (Epoch: 17 June)

Event Time Altitude Azimuth Distance (km) Brightness Sun altitude
Rises 18:22:56 0° 275° (W) 2,689 6.2 -13.4°
Reaches altitude 10° 18:25:14 10° 280° (W) 1,798 4.9 -13.8°
Maximum altitude 18:29:17 52° 356° (N) 676 1.3 -14.6°
Enters shadow 18:31:55 20° 66° (ENE) 1,277 2.2 -15.2°
